Погода в Житомире

Хотите узнать прогноз погоды в Житомире? Тогда Вам сюда: Погода в Житомире

Поиск расширенной информации на нашем сайте:

Полезная информация:

Новости сайта



02.01.2020
Опубликован Долгосрочный прогноз погоды по городам России и ближнего зарубежья на январь 2020 года.
Карты: Прогноз на январь и февраль 2020 года, Сравнение прогнозируемой аномалии приземной температуры воздуха на январь 2020 года по разным моделям.




Погода в Житомире - сегодня

Время (UTC), дата Ветер
(°,м/с) 
Видим.   Явления Облачность Т
(°С)
Тd
(°С)
f(%) Тe
(°С)
Pmin
(гПа)
dP
(гПа)
Po
(мм)
O2
(г/м3)
Тmin Tmax R s Состояние
почвы
09 04.06.20 230 (ЮЗ) 10 км    8/6 700 м кучево-дожд., средняя 
[Cb calv|Ac trans]
+15.8 +7.5 58 +17  1003.8  734  278           
12 04.06.20 260 (З) 10 км  {ливн. осадки}  4/3 600 м средняя 
[Cu med, cong|Ac trans]
+18.7 +5.6 42 +19  1003  -0.6  733  276      0.0     
15 04.06.20 270 (З) 10 км  в посл. час ливневой дождь  8/4 600 м кучево-дожд., средняя 
[Cb calv|Ac trans]
+14.6 +8.8 68 +16  1003.8  0.5  734  279           
18 04.06.20 140 (ЮВ) 10 км  {ливн. осадки}  6/4 600 м кучево-дожд., средняя 
[Cb cap|Ac trans]
+14 +9.2 73 +16  1003.7  -0.2  734  279    +19  0.0     
21 04.06.20 040 (СВ) 10 км  {ливн. осадки}  9/8 700 м кучево-дожд., средняя 
[Cb cap|Ac trans]
+12.1 +10.2 88 +15  1004  0.2  734  281           
00 05.06.20 тихо ()   4000 м  дымка{ливн. осадки}  8/3 600 м кучево-дожд., средняя 
[Cb cap|Ac trans]
+10.8 +10 95 +12  1003.5  -0.6  733  282      0.4     
03 05.06.20 тихо ()   10 км  в посл. час ливневой дождь  10/8 800 м кучево-дожд., средняя 
[Cb cap|Ac As]
+12.3 +10 86 +14  1003.2  -0.2  733  281           
06 05.06.20 240 (ЮЗ) 4000 м  слаб. ливневой дождь  10/8 700 м кучево-дожд., средняя 
[Cb cap|Ac As]
+14 +12 88 +19  1004.4  1.3  734  279  +10.1    0.5     
09 05.06.20 170 (Ю) 10 км  в посл. час ливневой дождь  10/6 840 м кучево-дожд., средняя 
[Cb cap|Ac As]
+17.4 +13.7 79 +26  1005.2  1.1  735  276           
12 05.06.20 250 (З) 10 км  {ливн. осадки}  9/4 600 м кучево-дожд., средняя 
[Cb cap|Ac trans]
+20.3 +13.4 65 +27  1005.6  0.7  735  273      0.0     
15 05.06.20 180 (Ю) 10 км    8/3 1000 м средняя, верхняя 
[Cu med, cong|Ac trans|Ci fib]
+22.1 +13.8 59 +29  1005  -0.5  735  271           
18 05.06.20 тихо ()   10 км    6/0 средняя, верхняя 
[Ac lent|Cc]
+20.6 +12.9 61 +26  1004.9  -0.2  735  273    +22.5  0.0     
21 05.06.20 130 (ЮВ) 10 км    8/0 средняя, верхняя 
[Ac trans|Cc]
+16.7 +13.7 82 +25  1006.3  736  277           
00 06.06.20 130 (ЮВ) 10 км    8/0 средняя, верхняя 
[Ac trans|Ci fib]
+17.8 +13.8 77 +26  1006.1  -0.1  736  275           
03 06.06.20 310 (СЗ) 10 км    9/0 средняя, верхняя 
[Ac trans|Cs]
+16.4 +12.1 76 +22  1006.8  0.6  736  277           
06 06.06.20 240 (ЮЗ) 10 км    8/0 средняя, верхняя 
[Ac trans|Ci fib]
+20.2 +13.7 66 +27  1008.3  1.8  737  274  +16.3         
09 06.06.20 250 (З) 10 км    8/0 средняя, верхняя 
[Ac trans|Ci fib]
+24.4 +13.8 52 +31  1009.1  1.1  738  270           
12 06.06.20 240 (ЮЗ) 10 км    8/4 1000 м кучево-дожд., верхняя 
[Cb cap|Ci fib]
+25.4 +14.2 50 +33  1009.8  0.8  739  269           
15 06.06.20 260 (З) 10 км    8/3 1000 м средняя, верхняя 
[Cu med, cong|Ac trans|Ci fib]
+25.7 +14.6 50 +34  1009.5  -0.3  739  269           
18 06.06.20 тихо ()   10 км    4/0 средняя, верхняя 
[Ac trans|Ci fib]
+22.7 +15.8 65 +33  1010.4  0.7  739  272    +26.2       
21 06.06.20 тихо ()   10 км    3/0 средняя 
[Ac trans]
+18.2 +15.9 86 +29  1011.8  740  276           
00 07.06.20 010 (С) 4000 м  дымка  3/0 средняя 
[Ac trans]
+16.3 +15.1 93 +27  1012  740  278           
03 07.06.20 160 (Ю) 4000 м  дымка  8/0 средняя, верхняя 
[Ac trans|Ci fib]
+15.9 +15.2 96 +26  1012.2  0.1  740  278           
06 07.06.20 170 (Ю) 10 км    9/0 средняя, верхняя 
[Ac trans|Cc]
+21.5 +13 58 +27  1012.4  0.7  740  274  +15.4         
09 07.06.20 120 (ЮВ) 10 км    6/0 средняя, верхняя 
[Ac trans|Cc]
+25.3 +12.6 45 +30  1012.8  0.7  741  271           
Время (UTC), дата Ветер
(°,м/с) 
Видим.   Явления Облачность Т
(°С)
Тd
(°С)
f(%) Тe
(°С)
Pmin
(гПа)
dP
(гПа)
Po
(мм)
O2
(г/м3)
Тmin Tmax R s Состояние
почвы

Для получения пояснительной информации подведите курсор к названию столбца.

ПОГОДА в Житомире - архив

Всё, что Вы хотите узнать о погоде в Житомире - удобно и подробно!

Выберите нужную дату (начиная с 1 января 2019* года) и нажмите кнопку "Найти".
Будут отображены архивные сводки погоды по пункту Житомир, начиная с указанной даты.


Отображать данные в формате CSV (для использования в таблицах Excel)


Внимание! Наш архив погоды предназначен исключительно для личного некоммерческого использования в познавательных целях. Если Вам необходимы официальные справки о состоянии погоды (для производственных, юридических, коммерческих и т.п. целей), обращайтесь в органы Росгидромета.

*Примечание: данная дата относится к архиву по метеостанциям СССР (Россия, СНГ, Балтия).
Архив по метеостанциям Зарубежной Европы и Азии (кроме Китая) хранится 10 дней, по другим регионам земного шара (Китай, Африка, Америка, Австралия, Океания) - 1 день.

Житомир - район местоположения метеостанции


Название, широта, долгота, высота метеостанции:
Житомир 50.2°ш. 28.7°д. 224 м над ур. моря [Украина]

Дополнительная информация

В oтличие oт бoльшинства пoгoдных сайтoв мы публикуем пoдрoбную метеoинфoрмацию в детальнoм прoфессиoнальнoм фoрмате.

Характеристики температуры и влажнoсти вoздуха измеряются на высoте 2 м в тени вдали oт зданий и деревьев.
Скoрoсть ветра измеряется на высoте 10 м (на урoвне рoста челoвека скoрoсть ветра ниже в 1.5-2 раза). Если метеoстанция нахoдится в гoрoде или в лесу, тo скoрoсть ветра занижена на 2-4 м/с пo сравнению с oткрытым местoм. Скoрoсть ветра над акватoриями крупных рек и oзёр, а также на вершинах хoлмoв на 2-5 м/с выше, чем в oбычных услoвиях.
Атмoсфернoе давление в разных тoчках местнoсти мoжет значительнo oтличаться oт давления на метеoстанции, в зависимoсти oт услoвий рельефа (при пoдъёме на 10 м давление пoнижается примернo на 1 мм рт.ст.).